Weather History for Kerrville, TX

Change the Weather History Date:

Wednesday, February 12, 2014

  Actual Average (KHDO) Record (KHDO)
Temperature  
Mean Temperature 42 °F -  
Max Temperature 56 °F 64 °F 78 °F (2009)
Min Temperature 27 °F 41 °F 21 °F (2006)
Degree Days  
Heating Degree Days 24    
Moisture  
Dew Point 29 °F    
Average Humidity 72    
Maximum Humidity 90    
Minimum Humidity 39    
Precipitation  
Precipitation 0.00 in - - ()
Sea Level Pressure  
Sea Level Pressure 30.13 in    
Wind  
Wind Speed 7 mph (NW)    
Max Wind Speed 13 mph    
Max Gust Speed 18 mph    
Visibility 10 miles    
Events      
Averages and records for this station are not official NWS values.
T = Trace of Precipitation, MM = Missing Value Source: NWS Daily Summary

Daily Weather History Graph

Daily Weather History Graph

Search for Another Location

Airport:

Trip Planner

Search our weather history database for the weather conditions in past years. The results will help you decide how hot, cold, wet, or windy it might be!

Date:

Astronomy

Feb. 12, 2014 Rise Set
Actual Time 7:18 AM CST 6:22 PM CST
Civil Twilight 6:54 AM CST 6:47 PM CST
Nautical Twilight 6:25 AM CST 7:15 PM CST
Astronomical Twilight 5:58 AM CST 7:43 PM CST
Moon 4:40 PM CST (2/12) 5:32 AM CST (2/12)
Length of Visible Light 11h 53m
Length of Day
11h 04m
Waxing Gibbous, 95% of the Moon is Illuminated
Feb 12
Waxing Gibbous
Feb 14
Full
Feb 22
Last Quarter
Mar 1
New
Mar 8
First Quarter

Hourly Weather History & Observations

Time (CST) Temp. Windchill Dew Point Humidity Pressure Visibility Wind Dir Wind Speed Gust Speed Precip Events Conditions
12:15 AM 31.1 °F 23.1 °F 27.9 °F 88% 30.20 in 10.0 mi NW 9.2 mph - N/A   Overcast
12:35 AM 31.1 °F 23.1 °F 28.0 °F 88% 30.19 in 10.0 mi NW 9.2 mph - N/A   Overcast
12:55 AM 31.1 °F 22.4 °F 28.0 °F 88% 30.19 in 10.0 mi NW 10.4 mph - N/A   Overcast
1:15 AM 31.1 °F 23.7 °F 28.4 °F 90% 30.18 in 7.0 mi NW 8.1 mph - N/A   Overcast
1:35 AM 31.1 °F 23.7 °F 28.2 °F 89% 30.18 in 7.0 mi NW 8.1 mph - N/A   Overcast
1:55 AM 31.1 °F 24.5 °F 28.0 °F 88% 30.17 in 7.0 mi NNW 6.9 mph - N/A   Overcast
2:15 AM 31.1 °F 23.7 °F 27.5 °F 87% 30.18 in 7.0 mi NNW 8.1 mph - N/A   Overcast
2:35 AM 31.1 °F 23.7 °F 27.5 °F 87% 30.16 in 10.0 mi NNW 8.1 mph - N/A   Overcast
2:55 AM 31.1 °F 25.4 °F 27.5 °F 87% 30.17 in 10.0 mi NW 5.8 mph - N/A   Overcast
3:15 AM 31.1 °F 25.4 °F 27.5 °F 87% 30.16 in 10.0 mi NNW 5.8 mph - N/A   Overcast
3:35 AM 31.1 °F 24.5 °F 27.5 °F 87% 30.15 in 10.0 mi NNW 6.9 mph - N/A   Overcast
3:55 AM 31.1 °F 25.4 °F 27.5 °F 87% 30.15 in 10.0 mi NW 5.8 mph - N/A   Overcast
4:15 AM 31.1 °F 24.5 °F 27.5 °F 87% 30.15 in 10.0 mi NW 6.9 mph - N/A   Overcast
4:35 AM 31.1 °F 24.5 °F 27.5 °F 87% 30.14 in 10.0 mi NW 6.9 mph - N/A   Overcast
4:55 AM 31.1 °F 26.4 °F 27.5 °F 87% 30.15 in 10.0 mi NW 4.6 mph - N/A   Overcast
5:15 AM 31.1 °F 23.7 °F 27.5 °F 87% 30.16 in 10.0 mi NW 8.1 mph - N/A   Overcast
5:35 AM 31.1 °F 23.7 °F 27.5 °F 87% 30.15 in 10.0 mi NW 8.1 mph - N/A   Overcast
5:55 AM 31.1 °F 24.5 °F 27.5 °F 87% 30.15 in 10.0 mi NNW 6.9 mph - N/A   Overcast
6:15 AM 31.1 °F 24.5 °F 27.9 °F 88% 30.16 in 10.0 mi NW 6.9 mph - N/A   Overcast
6:35 AM 28.8 °F 23.7 °F 25.5 °F 88% 30.15 in 10.0 mi NNW 4.6 mph - N/A   Mostly Cloudy
6:55 AM 28.8 °F 22.6 °F 25.7 °F 88% 30.15 in 10.0 mi NW 5.8 mph - N/A   Clear
7:15 AM 27.5 °F - 24.8 °F 90% 30.15 in 10.0 mi Calm Calm - N/A   Clear
7:35 AM 27.5 °F - 24.8 °F 90% 30.17 in 10.0 mi Calm Calm - N/A   Clear
7:55 AM 28.8 °F - 26.1 °F 90% 30.17 in 10.0 mi Calm Calm - N/A   Scattered Clouds
8:15 AM 28.8 °F 21.7 °F 25.7 °F 88% 30.16 in 10.0 mi NW 6.9 mph - N/A   Clear
8:35 AM 28.8 °F 21.7 °F 25.7 °F 88% 30.17 in 10.0 mi NNW 6.9 mph - N/A   Clear
8:55 AM 31.1 °F 24.5 °F 27.5 °F 87% 30.18 in 10.0 mi NNW 6.9 mph - N/A   Clear
9:15 AM 31.6 °F 24.4 °F 27.1 °F 83% 30.19 in 10.0 mi NW 8.1 mph - N/A   Scattered Clouds
9:35 AM 33.4 °F 26.6 °F 28.0 °F 81% 30.20 in 10.0 mi NNW 8.1 mph - N/A   Scattered Clouds
9:55 AM 33.4 °F 24.8 °F 27.7 °F 79% 30.20 in 10.0 mi NNW 11.5 mph - N/A   Scattered Clouds
10:15 AM 36.0 °F 29.0 °F 29.7 °F 78% 30.20 in 10.0 mi NNW 9.2 mph - N/A   Clear
10:35 AM 36.0 °F 29.6 °F 28.2 °F 73% 30.21 in 10.0 mi NW 8.1 mph - N/A   Clear
10:55 AM 37.6 °F 34.0 °F 29.1 °F 72% 30.21 in 10.0 mi NW 4.6 mph - N/A   Clear
11:15 AM 38.5 °F 34.1 °F 29.1 °F 69% 30.20 in 10.0 mi WNW 5.8 mph - N/A   Clear
11:35 AM 41.0 °F 35.8 °F 30.0 °F 65% 30.19 in 10.0 mi WNW 8.1 mph - N/A   Clear
11:55 AM 41.7 °F 35.6 °F 29.1 °F 61% 30.18 in 10.0 mi NNW 10.4 mph - N/A   Clear
12:15 PM 43.2 °F 36.6 °F 28.6 °F 56% 30.18 in 10.0 mi NW 12.7 mph - N/A   Clear
12:35 PM 44.1 °F 38.1 °F 27.7 °F 53% 30.16 in 10.0 mi NNW 11.5 mph - N/A   Clear
12:55 PM 45.7 °F 40.6 °F 28.4 °F 51% 30.15 in 10.0 mi NW 10.4 mph - N/A   Clear
1:15 PM 47.3 °F - 29.3 °F 50% 30.13 in 10.0 mi NW 10.4 mph - N/A   Clear
1:35 PM 48.6 °F - 30.2 °F 49% 30.12 in 10.0 mi WNW 10.4 mph 16.1 mph N/A   Clear
1:55 PM 48.6 °F - 30.0 °F 49% 30.11 in 10.0 mi NNW 11.5 mph 18.4 mph N/A   Clear
2:15 PM 51.1 °F - 31.8 °F 48% 30.10 in 10.0 mi NNW 12.7 mph - N/A   Clear
2:35 PM 51.1 °F - 31.6 °F 47% 30.09 in 10.0 mi NW 6.9 mph - N/A   Clear
2:55 PM 52.5 °F - 32.4 °F 46% 30.08 in 10.0 mi NW 6.9 mph - N/A   Clear
3:15 PM 53.6 °F - 32.4 °F 44% 30.07 in 10.0 mi NW 9.2 mph - N/A   Clear
3:35 PM 55.2 °F - 32.9 °F 43% 30.06 in 10.0 mi NW 11.5 mph - N/A   Clear
3:55 PM 56.3 °F - 33.3 °F 42% 30.06 in 10.0 mi NW 9.2 mph - N/A   Clear
4:15 PM 56.3 °F - 32.9 °F 41% 30.05 in 10.0 mi WNW 9.2 mph 16.1 mph N/A   Clear
4:35 PM 56.5 °F - 32.2 °F 40% 30.05 in 10.0 mi WNW 5.8 mph - N/A   Clear
4:55 PM 56.5 °F - 32.0 °F 39% 30.05 in 10.0 mi NNW 8.1 mph - N/A   Clear
5:15 PM 56.3 °F - 32.0 °F 40% 30.05 in 10.0 mi NNW 4.6 mph - N/A   Clear
5:35 PM 56.3 °F - 32.2 °F 40% 30.05 in 10.0 mi North 5.8 mph - N/A   Clear
5:55 PM 55.4 °F - 32.4 °F 42% 30.07 in 10.0 mi North 6.9 mph - N/A   Clear
6:15 PM 52.7 °F - 32.0 °F 45% 30.07 in 10.0 mi North 5.8 mph - N/A   Clear
6:35 PM 51.1 °F - 32.0 °F 48% 30.07 in 10.0 mi Calm Calm - N/A   Clear
6:55 PM 48.6 °F - 32.2 °F 53% 30.08 in 10.0 mi NNE 3.5 mph - N/A   Clear
7:15 PM 47.7 °F - 32.4 °F 55% 30.09 in 10.0 mi North 3.5 mph - N/A   Clear
7:35 PM 44.1 °F - 32.0 °F 63% 30.10 in 10.0 mi Calm Calm - N/A   Clear
7:55 PM 44.6 °F - 32.0 °F 61% 30.10 in 10.0 mi Calm Calm - N/A   Clear
8:15 PM 40.8 °F - 31.8 °F 70% 30.10 in 10.0 mi Calm Calm - N/A   Clear
8:35 PM 38.8 °F - 30.9 °F 73% 30.10 in 10.0 mi Calm Calm - N/A   Clear
8:55 PM 38.5 °F - 31.3 °F 75% 30.10 in 10.0 mi Calm Calm - N/A   Clear
9:15 PM 35.4 °F - 29.5 °F 79% 30.10 in 10.0 mi Calm Calm - N/A   Clear
9:35 PM 36.0 °F - 30.9 °F 82% 30.10 in 10.0 mi Calm Calm - N/A   Clear
9:55 PM 36.0 °F 32.1 °F 30.9 °F 82% 30.09 in 10.0 mi North 4.6 mph - N/A   Clear
10:15 PM 32.4 °F 27.9 °F 28.9 °F 87% 30.09 in 10.0 mi North 4.6 mph - N/A   Clear
10:35 PM 32.2 °F 28.9 °F 28.8 °F 87% 30.09 in 10.0 mi NNW 3.5 mph - N/A   Clear
10:55 PM 32.5 °F - 29.3 °F 88% 30.09 in 10.0 mi Calm Calm - N/A   Clear
11:15 PM 33.4 °F - 29.8 °F 87% 30.08 in 10.0 mi Calm Calm - N/A   Clear
11:35 PM 32.2 °F - 28.9 °F 88% 30.08 in 10.0 mi Calm Calm - N/A   Clear
11:55 PM 31.5 °F - 28.0 °F 87% 30.08 in 10.0 mi Calm Calm - N/A   Clear